Jaffrey, NH

11:37 PM EDT on May 28, 2017 (GMT -0400)
Jaffrey Airport-Silver Ranch

Weather History for KAFN - July, 2013

Change the Weather History Date:

Sunday, July 7, 2013

  Actual Average Record
Temperature  
Mean Temperature 76 °F -  
Max Temperature 88 °F 75 °F 95 °F (2010)
Min Temperature 64 °F 54 °F 48 °F (2000)
Cooling Degree Days 11    
Growing Degree Days 26 (Base 50)    
Moisture  
Dew Point 66 °F    
Average Humidity 74    
Maximum Humidity 93    
Minimum Humidity 49    
Precipitation  
Precipitation 0.00 in - - ()
Sea Level Pressure  
Sea Level Pressure 30.03 in    
Wind  
Wind Speed 2 mph (SSW)    
Max Wind Speed 10 mph    
Max Gust Speed -    
Visibility 10 miles    
Events      
Averages and records for this station are not official NWS values.
T = Trace of Precipitation, MM = Missing Value Source: NWS Daily Summary

Daily Weather History Graph

Daily Weather History Graph

Search for Another Location

Airport or City:

Trip Planner

Search our weather history database for the weather conditions in past years. The results will help you decide how hot, cold, wet, or windy it might be!

Date:

Astronomy

Jul. 07, 2013 Rise Set
Actual Time 5:17 AM EDT 8:28 PM EDT
Civil Twilight 4:42 AM EDT 9:03 PM EDT
Nautical Twilight 3:57 AM EDT 9:47 PM EDT
Astronomical Twilight 3:04 AM EDT 10:41 PM EDT
Moon 4:52 AM EDT (7/7) 7:48 PM EDT (7/7)
Length of Visible Light 16h 20m
Length of Day
15h 11m
Waning Crescent, 0% of the Moon is Illuminated
Jul 7
Waning Crescent
Jul 8
New
Jul 15
First Quarter
Jul 22
Full
Jul 29
Last Quarter

Hourly Weather History & Observations

Time (EDT) Temp. Heat Index Dew Point Humidity Pressure Visibility Wind Dir Wind Speed Gust Speed Precip Events Conditions
12:52 AM 68.0 °F - 60.1 °F 76% 30.07 in 10.0 mi Calm Calm - N/A   Clear
1:52 AM 68.0 °F - 61.0 °F 78% 30.07 in 10.0 mi Calm Calm - N/A   Clear
2:52 AM 66.0 °F - 61.0 °F 84% 30.06 in 10.0 mi Calm Calm - N/A   Clear
3:52 AM 66.0 °F - 62.1 °F 87% 30.05 in 10.0 mi Calm Calm - N/A   Clear
4:52 AM 64.0 °F - 62.1 °F 93% 30.06 in 10.0 mi Calm Calm - N/A   Clear
5:52 AM 64.0 °F - 62.1 °F 93% 30.06 in 9.0 mi Calm Calm - N/A   Clear
6:52 AM 69.1 °F - 63.0 °F 81% 30.06 in 10.0 mi Calm Calm - N/A   Clear
7:52 AM 72.0 °F - 63.0 °F 73% 30.06 in 10.0 mi Calm Calm - N/A   Clear
8:52 AM 75.0 °F - 64.0 °F 69% 30.07 in 10.0 mi SSW 6.9 mph - N/A   Clear
9:52 AM 78.1 °F - 64.9 °F 64% 30.05 in 10.0 mi SSW 5.8 mph - N/A   Scattered Clouds
10:52 AM 78.1 °F - 66.0 °F 66% 30.06 in 10.0 mi WSW 5.8 mph - 0.00 in   Clear
11:52 AM 80.1 °F 81.9 °F 64.9 °F 60% 30.05 in 10.0 mi SW 4.6 mph - N/A   Clear
12:52 PM 84.9 °F 87.6 °F 66.9 °F 55% 30.04 in 10.0 mi Variable 4.6 mph - N/A   Clear
1:52 PM 87.1 °F 89.2 °F 66.0 °F 49% 30.02 in 10.0 mi SSW 10.4 mph - N/A   Mostly Cloudy
2:52 PM 88.0 °F 91.4 °F 68.0 °F 51% 29.99 in 10.0 mi SSW 4.6 mph - N/A   Scattered Clouds
3:52 PM 84.0 °F 87.8 °F 69.1 °F 61% 29.99 in 10.0 mi SSW 8.1 mph - N/A   Scattered Clouds
4:52 PM 82.9 °F 87.5 °F 71.1 °F 67% 29.99 in 10.0 mi SSW 5.8 mph - N/A   Clear
5:52 PM 80.1 °F 83.2 °F 70.0 °F 71% 29.98 in 10.0 mi SSW 10.4 mph - N/A   Clear
6:52 PM 79.0 °F - 69.1 °F 72% 29.97 in 10.0 mi SSW 5.8 mph - N/A   Clear
7:52 PM 77.0 °F - 68.0 °F 74% 29.98 in 10.0 mi SSW 5.8 mph - N/A   Clear
8:52 PM 75.0 °F - 69.1 °F 82% 29.98 in 10.0 mi SSW 4.6 mph - N/A   Clear
9:52 PM 73.9 °F - 69.1 °F 85% 29.99 in 10.0 mi SSW 3.5 mph - N/A   Partly Cloudy
10:52 PM 73.0 °F - 69.1 °F 87% 29.99 in 10.0 mi SSW 4.6 mph - N/A   Clear
11:52 PM 71.1 °F - 68.0 °F 90% 29.97 in 10.0 mi Calm Calm - N/A   Clear